Location: Fayetteville
(35.0530°N, 78.8790°W)
Time: 00:40:20
(UTC-04:00)

ISS - Visible Passes

Search period start: 03 September 2014 00:00
Search period end: 13 September 2014 00:00
Orbit: 413 x 419 km, 51.6° (Epoch: 02 September)

Date Brightness Start Highest point End Pass type
(mag) Time Alt. Az. Time Alt. Az. Time Alt. Az.
09 Sep -0.3 05:45:11 10° SSE 05:46:23 12° SE 05:47:35 10° ESE visible
11 Sep -2.0 05:43:10 16° SSW 05:45:23 37° SE 05:48:29 10° ENE visible
12 Sep -1.0 04:56:55 19° SE 04:56:55 19° SE 04:59:15 10° E visible
12 Sep -2.3 06:30:16 10° WSW 06:33:19 33° NW 06:36:22 10° NNE visible
